Tracking 29892 objects as of 21-Nov-2024
HD Live streaming from Space Station
objects crossing your sky now

STARLINK-30359

Track STARLINK-30359 now!
10-day predictions
STARLINK-30359 is classified as:


NORAD ID: 57779
Int'l Code: 2023-134J
Perigee: 565.4 km
Apogee: 567.1 km
Inclination: 43.0 °
Period: 95.8 minutes
Semi major axis: 6937 km
RCS: Unknown
Launch date: September 4, 2023
Source: United States (US)
Launch site: AIR FORCE EASTERN TEST RANGE (AFETR)
Your satellite tracking list
Your tracking list is empty




NASA's NSSDC Master Catalog

Two Line Element Set (TLE):
1 57779U 23134J   24325.80780644  .00002019  00000-0  16451-3 0  9993
2 57779  43.0005 239.9268 0001254 243.1090 116.9624 15.02528629 68338
Source of the keplerian elements: AFSPC